User: anonymous   Login
Location: Unspecified
(0.0000°N, 0.0000°E)
Time: 09:14:58
(UTC+00:00)
Language:

Isis 2 - Orbit

View from above orbital plane
View from above orbital plane
View from above satellite
View from above satellite

Ground track
Ground track

The orbit data is extracted from the following two-line orbital elements,

1 05104U 71024A   21016.76337934  .00000029  00000-0  95463-4 0  9998
2 05104  88.1621 271.6468 0043522 346.8680  73.3390 12.67844391304178
Epoch (UTC): 16 January 2021 18:19:15
Eccentricity: 0.0043522
inclination: 88.1621°
perigee height: 1357 km
apogee height: 1424 km
right ascension of ascending node: 271.6468°
argument of perigee: 346.8680°
revolutions per day: 12.67844391
mean anomaly at epoch: 73.3390°
orbit number at epoch: 30417

The dashed part of the orbit path shows where the satellite is in the earth's shadow,  

DLR